Flag for Indonesia Weather past 2 weeks in Medan, North Sumatra, Indonesia

Now
81 °F

Scattered clouds.


Feels Like: 87 °F
Forecast: 75 / 93 °F
Wind: 6 mph from Southwest

Location: Medan / Polonia

Current Time: Feb 28, 2015 at 9:06:41 AM

Latest Report: Feb 28, 2015 at 8:30 AM


Visibility: 3 mi

Pressure: 29.83 "Hg

Humidity: 89%

Dew point: 77 °F

Location of MedanLocation

Historic Weather in Medan — Graph

°F

Medan temperature yesterday

Maximum temperature yesterday: 90 °F (at 11:00 AM)
Minimum temperature yesterday: 77 °F (at 6:00 AM)
Average temperature yesterday: 82 °F

Past Weeks' High & Low Weather Summary

 TemperatureHumidityPressure
High93 °F (Feb 21, 12:30 PM)100% (Feb 13, 7:00 AM)29.92 "Hg (Feb 13, 7:00 AM)
Low72 °F (Feb 13, 7:00 AM)52% (Feb 15, 11:30 AM)29.71 "Hg (Feb 17, 4:00 PM)
Average81 °F85%29.82 "Hg
* Reported Feb 13 7:00 AM — Feb 28 7:30 AM, Medan, Weather by CustomWeather, © 2015

Note: Actual official high and low records may vary slightly from our data, if they occured in-between our weather recording intervals... More about our weather records

Advertising

Medan weather history for previous 24 hours

 ConditionsComfort  
Time TempWeatherWind HumidityBarometerVisibility
7:30 AM
Sat, Feb 28
75 °FScattered clouds.3 mph100%29.83 "Hg2 mi
7:00 AM73 °FFog.No wind100%29.80 "Hg2 mi
6:30 AM73 °FFog.3 mph100%29.80 "Hg3 mi
6:00 AM73 °FFog.No wind100%29.77 "Hg2 mi
5:30 AM73 °FFog.No wind100%29.77 "Hg3 mi
5:00 AM73 °FPassing clouds.3 mph100%29.77 "Hg4 mi
4:30 AM73 °FMild.No wind100%29.77 "Hg3 mi
4:00 AM73 °FMild.No wind100%29.77 "Hg3 mi
3:30 AM75 °FMild.No wind100%29.77 "Hg4 mi
1:30 AM75 °FPassing clouds.3 mph100%29.80 "HgN/A
1:00 AM75 °FMild.3 mph100%29.83 "HgN/A
12:30 AM77 °FPartly cloudy.3 mph94%29.83 "HgN/A
12:00 AM77 °FPassing clouds.5 mph94%29.83 "HgN/A
11:30 PM
Fri, Feb 27
77 °FPassing clouds.5 mph94%29.86 "Hg6 mi
11:00 PM77 °FPassing clouds.5 mph100%29.83 "Hg6 mi
10:30 PM79 °FPassing clouds.5 mph94%29.83 "Hg4 mi
10:00 PM77 °FPartly cloudy.3 mph100%29.83 "Hg3 mi
9:30 PM77 °FPassing clouds.2 mph94%29.83 "Hg3 mi
9:00 PM79 °FPassing clouds.5 mph89%29.80 "Hg5 mi
8:30 PM79 °FPassing clouds.6 mph89%29.80 "Hg4 mi
8:00 PM79 °FPassing clouds.6 mph89%29.80 "Hg4 mi
7:30 PM81 °FPartly cloudy.5 mph89%29.77 "Hg4 mi
7:00 PM82 °FPassing clouds.7 mph84%29.77 "Hg3 mi
6:30 PM84 °FPartly sunny.6 mph84%29.77 "Hg4 mi
6:00 PM84 °FPartly sunny.9 mph84%29.74 "Hg4 mi
5:30 PM84 °FPartly sunny.6 mph84%29.74 "Hg4 mi
5:00 PM84 °FPartly sunny.9 mph84%29.74 "Hg4 mi
4:30 PM84 °FPartly sunny.9 mph84%29.71 "Hg4 mi
4:00 PM86 °FPartly sunny.8 mph79%29.71 "Hg4 mi
3:30 PM86 °FPartly sunny.12 mph79%29.74 "Hg4 mi
3:00 PM86 °FPartly sunny.12 mph79%29.71 "Hg4 mi
2:30 PM86 °FPartly sunny.14 mph79%29.74 "Hg4 mi
2:00 PM88 °FPartly sunny.13 mph75%29.77 "Hg4 mi
1:30 PM88 °FPartly sunny.12 mph75%29.77 "Hg4 mi
1:00 PM88 °FScattered clouds.16 mph70%29.80 "Hg4 mi
12:30 PM88 °FScattered clouds.13 mph79%29.80 "Hg4 mi
12:00 PM88 °FScattered clouds.12 mph70%29.80 "Hg4 mi
11:30 AM90 °FPartly sunny.9 mph71%29.83 "Hg4 mi
11:00 AM90 °FPartly sunny.9 mph67%29.83 "Hg5 mi
10:30 AM88 °FPartly sunny.7 mph70%29.83 "Hg5 mi
10:00 AM88 °FPartly sunny.6 mph75%29.83 "Hg5 mi
9:30 AM86 °FPartly sunny.6 mph79%29.83 "Hg5 mi
9:00 AM84 °FScattered clouds.3 mph84%29.83 "Hg4 mi
Weather by CustomWeather, © 2015

See weather overviewHow to use our weather pages